Regional Weather Roundup
Issued by NWS

Home | Current Version | Previous Version | Text Only | Print | Product List | Glossary On
Versions: 1 2 3 4 5 6 7 8 9 10 11 12 13 14 15 16 17 18 19 20 21 22 23 24 25 26 27 28 29 30 31 32 33 34 35 36 37 38 39 40 41 42 43 44 45 46 47 48 49 50
000
ASUS44 KJAN 281810
RWRMS

MISSISSIPPI HOURLY WEATHER ROUNDUP
NATIONAL WEATHER SERVICE JACKSON MS
100 PM CDT WED JUN 28 2017

NOTE: "FAIR: INDICATES FEW OR NO CLOUDS BELOW 12,000 FEET WITH NO
SIGNIFICANT WEATHER AND/OR OBSTRUCTIONS TO VISIBILITY.

MSZ001>002-007>008-010>013-018>021-025>028-034>036-281900-
NORTHWEST MISSISSIPPI

CITY           SKY/WX    TMP DP  RH WIND       PRES   REMARKS
BATESVILLE     FAIR      85  64  48 SE5       30.06F
CLARKSDALE       N/A     86  70  58 SE7       30.04F HX  90
CLEVELAND      MOCLDY    85  68  57 S5        30.03F
GREENWOOD      MOSUNNY   87  68  52 SE7       30.04S HX  90
6HR MIN TEMP:  70; 6HR MAX TEMP:  88;

GREENVILLE     MOSUNNY   86  66  51 VRB6      30.03S
6HR MIN TEMP:  69; 6HR MAX TEMP:  86;

OLIVE BRANCH   PTSUNNY  N/A N/A N/A S6        30.05F
OXFORD         FAIR      84  63  48 E7G16     30.08F
TUNICA           N/A     86  66  51 SE8       30.05F
WINONA         FAIR      84  67  55 SE5       30.05F
$$

MSZ003>006-009-014>017-022>024-029>033-037>039-281900-
NORTHEAST MISSISSIPPI

CITY           SKY/WX    TMP DP  RH WIND       PRES   REMARKS
COLUMBUS AFB   MOSUNNY   86  71  59 SE12      30.06F HX  91
6HR MIN TEMP:  69; 6HR MAX TEMP:  86;

CORINTH        FAIR      86  61  42 S5G13     30.09S
GOLDN TRIANGLE SUNNY     84  63  48 SE9       30.04F
STARKVILLE     FAIR      86  66  51 E9        30.08S
TUPELO         MOSUNNY   86  62  44 SE3       30.07F
6HR MIN TEMP:  68; 6HR MAX TEMP:  86;

$$

MSZ040-058-281900-
CENTRAL MISSISSIPPI

CITY           SKY/WX    TMP DP  RH WIND       PRES   REMARKS
JACKSON INTL   MOSUNNY   87  65  47 SE10      30.03F
6HR MIN TEMP:  71; 6HR MAX TEMP:  87;

JACKSON HAWKNS SUNNY     87  64  46 SE3       30.03F
6HR MIN TEMP:  71; 6HR MAX TEMP:  87;

MADISON        FAIR      82  63  51 E3        30.03F
MERIDIAN KEY   MOSUNNY   86  68  54 E9        30.05F
6HR MIN TEMP:  69; 6HR MAX TEMP:  89;

MERIDIAN NAS   MOSUNNY   87  65  47 E8        30.05F
6HR MIN TEMP:  69; 6HR MAX TEMP:  87;

RAYMOND        FAIR      86  68  54 SE7       30.02F
VICKSBURG VKS  CLEAR     88  68  51 VRB5      29.98F HX  91
$$

MSZ059>079-281900-
SOUTH MISSISSIPPI

CITY           SKY/WX    TMP DP  RH WIND       PRES   REMARKS
COLUMBIA       FAIR      86  72  62 VRB6      30.05S HX  92
HATTIESBURG    LGT RAIN  81  72  74 SE8       30.04S
6HR MIN TEMP:  71; 6HR MAX TEMP:  86; 6HR PCP: TRACE;

LAUREL         FAIR      86  68  54 E7        30.03F HX  90
MCCOMB         CLOUDY    78  68  71 SE16      30.04R
6HR MIN TEMP:  73; 6HR MAX TEMP:  86;

NATCHEZ        PTSUNNY   86  72  62 SE7       30.01F HX  92
6HR MIN TEMP:  72; 6HR MAX TEMP:  86;

PINE BELT      PTSUNNY   84  70  61 S5        30.05F
6HR MIN TEMP:  70; 6HR MAX TEMP:  88;

$$

MSZ080>082-281900-
COASTAL MISSISSIPPI

CITY           SKY/WX    TMP DP  RH WIND       PRES   REMARKS
BAY ST LOUIS   PTSUNNY   81  73  78 E7        30.03S
BILOXI         CLOUDY    77  73  88 CALM      30.02F
6HR MIN TEMP:  76; 6HR MAX TEMP:  85; 6HR PCP:  0.04;

PASCAGOULA     CLOUDY    83  72  69 S5        30.03S
6HR MIN TEMP:  74; 6HR MAX TEMP:  87;

GULFPORT       LGT RAIN  76  72  87 CALM      30.02F
6HR MIN TEMP:  73; 6HR MAX TEMP:  85; 6HR PCP:  0.06;

$$

LAZ007>009-015>016-023>026-281900-
NORTHEAST LOUISIANA

CITY           SKY/WX    TMP DP  RH WIND       PRES   REMARKS
BASTROP        FAIR      87  67  52 SE5       30.02F HX  90
TALLULAH/VBURG SUNNY     86  68  54 SE6       30.01F
6HR MIN TEMP:  70; 6HR MAX TEMP:  87;

VIDALIA        MOCLDY    86  74  67 E5        29.99F HX  93
$$



USA.gov is the U.S. government's official web portal to all federal, state and local government web resources and services.